This demonstration page uses our WeatherBlox Daily Observations layout. Learn more.

Left ArrowRight Arrow

34.74481, -87.66753

Hourly Observations for December 12, 2020

Temp ( °F °C ) Dew Point ( °F °C ) Humidity (%) Winds ( mph kmh ) Pressure ( in mb ) Visibility ( mi km ) Precip ( " mm )
12:53 am 00:53 Cloudy with Light Rain 60 15.6 53 11.7 78 78 S 10 17 29.95 1014 10 16 0.02 0.51
1:53 am 01:53 Cloudy 59 15 53 11.7 81 81 S 9 15 29.93 1014 10 16 0.00 0.00
2:53 am 02:53 Cloudy 60 15.6 54 12.2 80 80 S 13 20 29.92 1013 10 16 0.00 0.00
3:53 am 03:53 Cloudy 60 15.6 55 12.8 84 84 S 15 24 29.91 1013 10 16 0.00 0.00
4:53 am 04:53 Cloudy 60 15.6 55 12.8 84 84 S 14 22 29.91 1013 10 16 0.00 0.00
5:53 am 05:53 Cloudy with Light Rain 60 15.6 56 13.3 86 86 S 12 19 29.91 1013 5 8 0.07 1.78
6:14 am 06:14 Cloudy with Light Rain 59 15 56 13.3 90 90 S 10 17 29.93 1013 6 10 0.01 0.25
6:41 am 06:41 Cloudy with Rain 59 15 56 13.3 90 90 S 8 13 29.93 1013 3 5 0.06 1.52
6:50 am 06:50 Cloudy with Light Rain 59 15 55 13 88 88 SSW 9 15 29.93 1013 3 5 0.08 2.03
6:53 am 06:53 Cloudy with Rain 59 15 56 13.3 90 90 SSW 8 13 29.92 1013 3 5 0.09 2.29
6:58 am 06:58 Cloudy with Rain 59 15 56 13.3 90 90 SSW 8 13 29.93 1013 3 4 0.01 0.25
7:01 am 07:01 Cloudy with Rain 59 15 56 13.3 90 90 SW 8 13 29.93 1013 3 5 0.02 0.51
7:09 am 07:09 Cloudy with Rain 59 15 56 13.3 90 90 SSW 7 11 29.94 1014 3 4 0.04 1.02
7:21 am 07:21 Cloudy with Heavy Rain 59 15 57 13.9 93 93 SSW 6 9 29.94 1014 2 2 0.12 3.05
7:32 am 07:32 Cloudy with Heavy Rain 59 15 56 13.3 90 90 SSW 6 9 29.94 1014 2 2 0.16 4.06
7:53 am 07:53 Cloudy with Rain 59 15 57 13.9 93 93 S 7 11 29.93 1014 2 3 0.20 5.08
8:09 am 08:09 Cloudy with Light Rain 59 15 57 13.9 93 93 S 6 9 29.94 1014 3 4 0.01 0.25
8:18 am 08:18 Cloudy with Light Rain 60 15.6 57 13.9 90 90 S 7 11 29.95 1014 4 6 0.01 0.25
8:53 am 08:53 Cloudy 60 15.6 58 14.4 93 93 S 6 9 29.94 1014 8 13 0.02 0.51
8:56 am 08:56 Cloudy 60 15.6 58 14.4 93 93 S 6 9 29.95 1014 8 13 0.00 0.00
9:53 am 09:53 Cloudy 62 16.7 58 14.4 86 86 WSW 8 13 29.94 1014 10 16 0.00 0.00
10:03 am 10:03 Cloudy 62 16.7 58 14.4 86 86 WSW 6 9 29.94 1014 10 16 0.00 0.00
10:53 am 10:53 Cloudy 62 16.7 58 14.4 86 86 W 8 13 29.93 1014 10 16 0.00 0.00
11:53 am 11:53 Cloudy with Mist and Fog 61 16.1 58 14.4 90 90 WNW 10 17 29.91 1013 5 8 0.00 0.00
12:28 pm 12:28 Cloudy 63 17.2 58 14.4 84 84 W 10 17 29.90 1013 10 16 0.00 0.00
12:53 pm 12:53 Cloudy 64 17.8 57 13.9 78 78 WSW 15 24 29.90 1013 10 16 0.00 0.00
1:34 pm 13:34 Partly Cloudy 65 18.3 56 13.3 73 73 SW 10 17 29.90 1013 10 16 0.00 0.00
1:53 pm 13:53 Partly Cloudy 67 19.4 56 13.3 68 68 SW 13 20 29.89 1012 10 16 0.00 0.00
2:53 pm 14:53 Mostly Sunny 66 18.9 54 12.2 65 65 WSW 14 22 29.90 1012 10 16 0.00 0.00
3:53 pm 15:53 Sunny 65 18.3 53 11.7 66 66 SW 9 15 29.91 1013 10 16 0.00 0.00
4:53 pm 16:53 Clear 60 15.6 51 10.6 72 72 SW 6 9 29.93 1014 10 16 0.00 0.00
5:53 pm 17:53 Clear 58 14.4 52 11.1 81 81 SSW 6 9 29.96 1014 10 16 0.00 0.00
6:53 pm 18:53 Clear 55 12.8 51 10.6 87 87 WSW 6 9 29.98 1015 10 16 0.00 0.00
7:53 pm 19:53 Clear 53 11.7 50 10 89 89 W 8 13 30.00 1016 10 16 0.00 0.00
8:53 pm 20:53 Clear 55 12.8 45 7.2 69 69 WNW 8 13 30.02 1017 10 16 0.00 0.00
9:53 pm 21:53 Clear 51 10.6 42 5.6 71 71 NNW 10 17 30.05 1018 10 16 0.00 0.00
10:53 pm 22:53 Clear 48 8.9 41 5 77 77 NNW 5 7 30.08 1019 10 16 0.00 0.00
11:53 pm 23:53 Clear 46 7.8 39 3.9 77 77 Calm 30.08 1019 10 16 0.00 0.00

Powered by AerisWeather